Location: Kitchener-Waterloo
(43.4500°N, 80.5000°W)
Time: 09:22:48
(UTC-04:00)

Amateur Radio Satellites - All Passes

Search period start: 23 August 2014 08:52
Search period end: 24 August 2014 08:52
Location: Kitchener-Waterloo, 43.4500°N, 80.5000°W

Satellite Date Start Highest point End Downlink Frequencies (MHz)
Time Altitude Azimuth
RS-15 23 Aug 09:01:09 09:11:17 43° 109° (ESE) 09:21:13 29.354 - 29.394 USB, Beacon 29.352 USB
SO-50 23 Aug 09:02:55 09:04:09 11° 332° (NNW) 09:05:23 436.795 FM
SO-67 23 Aug 09:04:35 09:07:50 38° 287° (WNW) 09:11:04 435.3500 MHz FM
HO-68 23 Aug 09:16:41 09:21:58 22° 91° (E) 09:27:12 435.675 MHz FM
UKube-1 23 Aug 09:53:32 09:56:28 18° 93° (E) 09:59:23 145.840 MHz, 145.915 MHz
Saudisat 1A 23 Aug 10:05:07 10:09:33 85° 55° (NE) 10:13:58 436.775 MHz
UOSAT-12 23 Aug 10:05:50 10:09:19 20° 321° (NW) 10:12:50 437.025 FM, 437.400 FM
Oscar 11 23 Aug 10:08:35 10:11:22 16° 91° (E) 10:14:09 145.825 FM, Beacon 2401.500 USB
KITSAT 1 23 Aug 10:23:39 10:31:44 67° 54° (NE) 10:39:44 435.175 FM
HO-68 23 Aug 11:03:10 11:10:19 74° 290° (WNW) 11:17:25 435.675 MHz FM
RS-15 23 Aug 11:12:21 11:23:14 60° 313° (NW) 11:34:03 29.354 - 29.394 USB, Beacon 29.352 USB
UKube-1 23 Aug 11:28:45 11:32:53 44° 289° (WNW) 11:37:00 145.840 MHz, 145.915 MHz
Oscar 11 23 Aug 11:43:36 11:47:49 48° 288° (WNW) 11:52:01 145.825 FM, Beacon 2401.500 USB
FUNcube-1 23 Aug 11:46:11 11:50:38 72° 102° (ESE) 11:55:09 145.950 - 145.970 MHz USB
Saudisat 1A 23 Aug 11:47:28 11:48:27 11° 253° (WSW) 11:49:26 436.775 MHz
KITSAT 1 23 Aug 12:19:50 12:26:32 30° 254° (WSW) 12:33:13 435.175 FM
Oscar 19 23 Aug 12:37:20 12:40:17 16° 59° (ENE) 12:43:13 437.125 CW, 437.150 USB
HO-68 23 Aug 12:52:48 12:56:51 16° 310° (NW) 13:00:54 435.675 MHz FM
JAS-1B 23 Aug 12:56:50 13:03:51 23° 54° (NE) 13:10:28 435.800 - 435.900 CW/SSB
Uribyol 2 23 Aug 13:03:52 13:06:13 13° 57° (ENE) 13:08:34 436.500 FM
ISS 23 Aug 13:05:08 13:06:16 11° 130° (SE) 13:07:24 145.800 FM
Oscar 16 23 Aug 13:08:57 13:13:21 30° 66° (ENE) 13:17:47 437.025 USB, Beacon 2401.1428
AO-27 23 Aug 13:17:31 13:20:45 17° 60° (ENE) 13:23:59 436.795 MHz FM
FUNcube-1 23 Aug 13:24:27 13:26:29 13° 298° (WNW) 13:28:31 145.950 - 145.970 MHz USB
RS-15 23 Aug 13:29:38 13:38:28 27° 343° (NNW) 13:47:22 29.354 - 29.394 USB, Beacon 29.352 USB
TMSAT-1 23 Aug 13:57:14 13:59:32 13° 57° (ENE) 14:01:49 436.925 FM
AO-Echo 23 Aug 14:06:58 14:11:52 46° 71° (ENE) 14:16:38 ?
SO-50 23 Aug 14:08:11 14:12:26 31° 45° (NE) 14:16:44 436.795 FM
Oscar 19 23 Aug 14:13:50 14:18:58 77° 257° (WSW) 14:24:10 437.125 CW, 437.150 USB
MaSat-1 23 Aug 14:22:20 14:23:42 11° 97° (E) 14:25:06 437.345 MHz
ITAMSAT 1 23 Aug 14:27:42 14:32:50 67° 73° (ENE) 14:37:58 435.822 SSB
Gurwin Techsat 1B 23 Aug 14:37:00 14:41:50 37° 68° (ENE) 14:46:41 435.225 FM
ISS 23 Aug 14:39:11 14:42:30 86° 146° (SE) 14:45:50 145.800 FM
Uribyol 2 23 Aug 14:39:46 14:44:56 90° 75° (ENE) 14:50:08 436.500 FM
JAS-1B 23 Aug 14:43:13 14:53:09 81° 72° (ENE) 15:02:25 435.800 - 435.900 CW/SSB
Oscar 16 23 Aug 14:47:51 14:52:35 36° 263° (W) 14:57:21 437.025 USB, Beacon 2401.1428
AO-27 23 Aug 14:54:31 14:59:42 70° 257° (WSW) 15:04:53 436.795 MHz FM
UOSAT-12 23 Aug 15:13:37 15:16:34 16° 35° (NE) 15:19:30 437.025 FM, 437.400 FM
AO-7 23 Aug 15:15:47 15:22:46 31° 55° (NE) 15:29:43 29.400 - 29.500 MHz
TMSAT-1 23 Aug 15:33:20 15:38:38 85° 75° (ENE) 15:43:58 436.925 FM
RS-15 23 Aug 15:46:38 15:55:38 28° 19° (NNE) 16:04:47 29.354 - 29.394 USB, Beacon 29.352 USB
AO-Echo 23 Aug 15:46:50 15:50:49 23° 266° (W) 15:54:45 ?
SO-50 23 Aug 15:48:38 15:53:06 40° 243° (WSW) 15:57:36 436.795 FM
MaSat-1 23 Aug 15:55:05 15:59:52 88° 116° (ESE) 16:05:04 437.345 MHz
ITAMSAT 1 23 Aug 16:09:43 16:12:48 16° 270° (W) 16:15:53 435.822 SSB
ISS 23 Aug 16:16:44 16:19:33 25° 345° (NNW) 16:22:23 145.800 FM
Gurwin Techsat 1B 23 Aug 16:17:14 16:21:50 30° 265° (W) 16:26:29 435.225 FM
Uribyol 2 23 Aug 16:23:41 16:25:07 11° 272° (W) 16:26:32 436.500 FM
Uosat F 23 Aug 16:28:40 16:33:36 60° 72° (ENE) 16:38:32 435.120 FM
JAS-1B 23 Aug 16:36:16 16:44:15 28° 270° (W) 16:51:58 435.800 - 435.900 CW/SSB
UOSAT-12 23 Aug 16:52:43 16:57:29 82° 55° (NE) 17:02:09 437.025 FM, 437.400 FM
AO-7 23 Aug 17:06:39 17:14:57 69° 255° (WSW) 17:23:17 29.400 - 29.500 MHz
JAS-2 23 Aug 17:07:26 17:11:48 20° 62° (ENE) 17:15:51 435.800 - 435.900 CW/SSB, 435.910 FM
TMSAT-1 23 Aug 17:17:07 17:19:14 12° 272° (W) 17:21:21 436.925 FM
OPAL 23 Aug 17:20:49 17:25:37 36° 99° (E) 17:30:24 ?
MaSat-1 23 Aug 17:34:30 17:37:45 17° 316° (NW) 17:41:05 437.345 MHz
ISS 23 Aug 17:54:30 17:57:04 20° 6° (N) 17:59:38 145.800 FM
RS-15 23 Aug 17:59:44 18:10:42 64° 49° (NE) 18:22:03 29.354 - 29.394 USB, Beacon 29.352 USB
Hamsat 23 Aug 18:02:22 18:06:26 44° 72° (ENE) 18:10:33 145.90 MHz
Uosat F 23 Aug 18:09:34 18:12:46 17° 269° (W) 18:16:00 435.120 FM
Sapphire 23 Aug 18:28:22 18:32:31 23° 107° (ESE) 18:36:42 437.095 MHz 1200 baud AX-25 AFSK
UOSAT-12 23 Aug 18:34:57 18:36:57 13° 253° (WSW) 18:38:55 437.025 FM, 437.400 FM
JAS-2 23 Aug 18:49:49 18:56:27 73° 257° (WSW) 19:02:19 435.800 - 435.900 CW/SSB, 435.910 FM
STRAND 1 23 Aug 18:53:22 18:55:35 13° 89° (E) 18:57:47 ?
PCSat 23 Aug 18:57:32 19:02:37 44° 113° (ESE) 19:07:45 145.825 MHz
OPAL 23 Aug 18:59:50 19:04:23 32° 296° (WNW) 19:08:56 ?
AO-7 23 Aug 19:05:57 19:09:13 13° 274° (W) 19:12:30 29.400 - 29.500 MHz
ISS 23 Aug 19:31:09 19:34:23 45° 26° (NNE) 19:37:36 145.800 FM
SO-67 23 Aug 19:38:14 19:41:42 77° 77° (ENE) 19:45:11 435.3500 MHz FM
Hamsat 23 Aug 19:39:47 19:42:37 17° 269° (W) 19:45:30 145.90 MHz
HO-68 23 Aug 19:47:40 19:52:37 21° 54° (NE) 19:57:34 435.675 MHz FM
Sapphire 23 Aug 20:10:16 20:15:33 54° 305° (NW) 20:20:53 437.095 MHz 1200 baud AX-25 AFSK
RS-15 23 Aug 20:12:36 20:22:35 41° 251° (WSW) 20:32:58 29.354 - 29.394 USB, Beacon 29.352 USB
STRAND 1 23 Aug 20:30:15 20:35:22 79° 286° (WNW) 20:40:27 ?
PCSat 23 Aug 20:41:23 20:46:11 31° 312° (NW) 20:51:01 145.825 MHz
JAS-2 23 Aug 20:41:41 20:42:15 10° 272° (W) 20:42:50 435.800 - 435.900 CW/SSB, 435.910 FM
UKube-1 23 Aug 20:50:26 20:53:31 19° 64° (ENE) 20:56:36 145.840 MHz, 145.915 MHz
Oscar 11 23 Aug 21:05:19 21:07:58 16° 63° (ENE) 21:10:38 145.825 FM, Beacon 2401.500 USB
ISS 23 Aug 21:08:07 21:11:00 27° 223° (SW) 21:13:52 145.800 FM
Oscar 10/S400 23 Aug 21:15:15 21:35:46 54° 163° (SSE) 05:01:35 145.825 - 145.975 CW/USB, Beacon 145.810 USB
HO-68 23 Aug 21:32:17 21:39:26 87° 253° (WSW) 21:46:38 435.675 MHz FM
Sapphire 23 Aug 21:57:56 22:00:15 13° 327° (NNW) 22:02:34 437.095 MHz 1200 baud AX-25 AFSK
STRAND 1 23 Aug 22:12:09 22:13:43 11° 304° (NW) 22:15:16 ?
UKube-1 23 Aug 22:25:16 22:29:25 43° 261° (W) 22:33:35 145.840 MHz, 145.915 MHz
Oscar 11 23 Aug 22:39:31 22:43:44 53° 260° (W) 22:48:00 145.825 FM, Beacon 2401.500 USB
FUNcube-1 23 Aug 22:43:55 22:48:01 65° 74° (ENE) 22:52:11 145.950 - 145.970 MHz USB
HO-68 23 Aug 23:24:00 23:28:05 16° 272° (W) 23:32:12 435.675 MHz FM
MaSat-1 24 Aug 00:12:17 00:16:37 30° 52° (NE) 00:20:32 437.345 MHz
Saudisat 1A 24 Aug 00:14:14 00:17:01 17° 110° (ESE) 00:19:48 436.775 MHz
FUNcube-1 24 Aug 00:23:44 00:24:53 11° 271° (W) 00:26:02 145.950 - 145.970 MHz USB
KITSAT 1 24 Aug 00:53:31 01:00:47 38° 109° (ESE) 01:08:04 435.175 FM
MaSat-1 24 Aug 01:49:27 01:53:43 33° 253° (WSW) 01:57:30 437.345 MHz
Saudisat 1A 24 Aug 01:51:48 01:56:09 58° 308° (NW) 02:00:32 436.775 MHz
PCSat 24 Aug 02:02:51 02:04:30 11° 31° (NNE) 02:06:09 145.825 MHz
AO-Echo 24 Aug 02:15:16 02:16:59 12° 89° (E) 02:18:41 ?
Oscar 19 24 Aug 02:24:32 02:29:17 35° 97° (E) 02:34:00 437.125 CW, 437.150 USB
JAS-1B 24 Aug 02:31:31 02:36:22 19° 85° (E) 02:40:43 435.800 - 435.900 CW/SSB
ITAMSAT 1 24 Aug 02:40:13 02:44:09 22° 93° (E) 02:48:04 435.822 SSB
KITSAT 1 24 Aug 02:48:02 02:55:56 55° 310° (NW) 03:03:52 435.175 FM
Uribyol 2 24 Aug 02:51:46 02:56:16 29° 95° (E) 03:00:44 436.500 FM
Gurwin Techsat 1B 24 Aug 02:53:39 02:56:04 13° 88° (E) 02:58:27 435.225 FM
Oscar 16 24 Aug 02:57:47 03:03:00 73° 103° (ESE) 03:08:11 437.025 USB, Beacon 2401.1428
OPAL 24 Aug 03:02:35 03:03:51 11° 53° (NE) 03:05:09 ?
AO-27 24 Aug 03:06:35 03:11:24 38° 98° (E) 03:16:12 436.795 MHz FM
Sapphire 24 Aug 03:14:04 03:18:42 28° 46° (NE) 03:23:18 437.095 MHz 1200 baud AX-25 AFSK
Saudisat 1A 24 Aug 03:35:04 03:36:41 12° 328° (NNW) 03:38:18 436.775 MHz
PCSat 24 Aug 03:44:06 03:49:21 46° 53° (NE) 03:54:33 145.825 MHz
TMSAT-1 24 Aug 03:48:25 03:53:06 31° 95° (E) 03:57:45 436.925 FM
AO-Echo 24 Aug 03:51:36 03:56:20 74° 286° (WNW) 04:00:59 ?
Oscar 19 24 Aug 04:04:00 04:08:33 31° 294° (WNW) 04:13:05 437.125 CW, 437.150 USB
ITAMSAT 1 24 Aug 04:18:55 04:23:54 49° 290° (WNW) 04:28:52 435.822 SSB
JAS-1B 24 Aug 04:20:36 04:28:03 73° 289° (WNW) 04:34:16 435.800 - 435.900 CW/SSB
Uribyol 2 24 Aug 04:31:03 04:35:47 37° 293° (WNW) 04:40:30 436.500 FM
Gurwin Techsat 1B 24 Aug 04:31:20 04:36:40 82° 285° (WNW) 04:41:58 435.225 FM
Uosat F 24 Aug 04:36:28 04:39:36 17° 91° (E) 04:42:44 435.120 FM
OPAL 24 Aug 04:36:49 04:41:49 73° 71° (ENE) 04:46:55 ?
Oscar 16 24 Aug 04:38:35 04:41:45 17° 300° (WNW) 04:44:55 437.025 USB, Beacon 2401.1428
AO-27 24 Aug 04:46:22 04:50:46 29° 295° (WNW) 04:55:09 436.795 MHz FM
KITSAT 1 24 Aug 04:47:49 04:53:22 20° 335° (NNW) 04:58:56 435.175 FM
Sapphire 24 Aug 04:57:09 05:02:25 52° 245° (WSW) 05:07:39 437.095 MHz 1200 baud AX-25 AFSK
AO-7 24 Aug 05:07:08 05:14:47 39° 98° (E) 05:22:22 29.400 - 29.500 MHz
PCSat 24 Aug 05:27:59 05:32:31 28° 251° (WSW) 05:37:01 145.825 MHz
TMSAT-1 24 Aug 05:28:14 05:33:02 36° 293° (WNW) 05:37:48 436.925 FM
JAS-2 24 Aug 06:01:32 06:01:54 10° 88° (E) 06:02:17 435.800 - 435.900 CW/SSB, 435.910 FM
SO-50 24 Aug 06:04:23 06:08:43 51° 119° (ESE) 06:13:09 436.795 FM
STRAND 1 24 Aug 06:09:46 06:13:41 23° 63° (ENE) 06:17:36 ?
JAS-1B 24 Aug 06:13:11 06:17:03 15° 313° (NW) 06:20:38 435.800 - 435.900 CW/SSB
Gurwin Techsat 1B 24 Aug 06:13:41 06:15:47 12° 304° (WNW) 06:17:53 435.225 FM
Uosat F 24 Aug 06:13:52 06:18:48 61° 288° (WNW) 06:23:43 435.120 FM
OPAL 24 Aug 06:18:39 06:21:15 14° 269° (W) 06:23:53 ?
KITSAT 1 24 Aug 06:48:41 06:52:40 14° 6° (N) 06:56:38 435.175 FM
AO-7 24 Aug 06:59:49 07:07:43 51° 297° (WNW) 07:15:35 29.400 - 29.500 MHz
UOSAT-12 24 Aug 07:06:21 07:09:32 19° 110° (ESE) 07:12:45 437.025 FM, 437.400 FM
Hamsat 24 Aug 07:22:34 07:26:58 80° 102° (ESE) 07:31:18 145.90 MHz
JAS-2 24 Aug 07:42:35 07:47:47 89° 283° (WNW) 07:53:08 435.800 - 435.900 CW/SSB, 435.910 FM
SO-50 24 Aug 07:45:54 07:49:34 24° 319° (NW) 07:53:18 436.795 FM
STRAND 1 24 Aug 07:47:38 07:52:33 49° 260° (W) 07:57:30 ?
RS-15 24 Aug 08:26:22 08:35:39 33° 105° (ESE) 08:44:46 29.354 - 29.394 USB, Beacon 29.352 USB
SO-67 24 Aug 08:33:51 08:37:20 81° 102° (ESE) 08:40:48 435.3500 MHz FM
Saudisat 1A 24 Aug 08:38:29 08:42:01 23° 42° (NE) 08:45:32 436.775 MHz
